Location: *
(2.5500°S, 65.9667°W)
Time: 06:52:32
(UTC+00:00)

Tiros 1 despin weight - Pass Details

Date: 22 April 2024
Orbit: 578 x 621 km, 48.2° (Epoch: 27 May)

Event Time Altitude Azimuth Distance (km) Brightness Sun altitude
Rises 02:46:38 0° 282° (WNW) 2,881 - -64.4°
Reaches altitude 10° 02:50:31 10° 249° (WSW) 1,973 - -65.2°
Maximum altitude 02:52:03 12° 228° (SW) 1,870 - -65.6°
Drops below altitude 10° 02:53:36 10° 208° (SSW) 1,969 - -65.9°
Sets 02:57:29 0° 175° (S) 2,865 - -66.8°
